Regional Weather Roundup
Issued by NWS

Home | Current Version | Previous Version | Graphics & Text | Print | Product List | Glossary On
Versions: 1 2 3 4 5 6 7 8 9 10 11 12 13 14 15 16 17 18 19 20 21 22 23 24 25 26 27 28 29 30 31 32 33 34 35 36 37 38 39 40 41 42 43 44 45 46 47 48 49 50
713
ASUS43 KLOT 220603
RWRIL

ILLINOIS REGIONAL WEATHER ROUNDUP
NATIONAL WEATHER SERVICE CHICAGO/ROMEOVILLE IL
1200 AM CST SUN JAN 22 2017

NOTE: "FAIR" INDICATES FEW OR NO CLOUDS BELOW 12,000 FEET WITH NO
SIGNIFICANT WEATHER AND/OR OBSTRUCTIONS TO VISIBILITY.

* THESE STATIONS ARE NOT UNDER NWS QUALITY CONTROL. THEY ALSO MAY NOT
  REPORT WEATHER SUCH AS PRECIPITATION OR FOG.

ILZ001-002-007-009-015-016-024-220700-
NORTHWEST ILLINOIS

CITY           SKY/WX    TMP DP  RH WIND       PRES   REMARKS
MOLINE         CLOUDY    43  37  79 NW6       29.58F
6HR MIN TEMP:  41; 6HR MAX TEMP:  45;

STERLING*      FOG       37  37 100 CALM      29.59F VSB 1/4
SAVANNA*       CLOUDY    38  38  99 CALM      29.58F FOG
$$

ILZ003-004-008-010-011-017-018-220700-
NORTH CENTRAL ILLINOIS

CITY           SKY/WX    TMP DP  RH WIND       PRES   REMARKS
ROCKFORD       FOG       41  39  93 S5        29.60F VSB 1/2
6HR MIN TEMP:  41; 6HR MAX TEMP:  44; 6HR PCP: TRACE;

FREEPORT*      CLOUDY    38  38  99 SW3       29.59F FOG
ROCHELLE*      FOG       36  36 100 CALM      29.60S VSB<1/4
DE KALB*       FOG       41  41  99 CALM      29.60S VSB 3/4
$$

ILZ005-006-012>014-019>023-220700-
NORTHEAST ILLINOIS

CITY           SKY/WX    TMP DP  RH WIND       PRES   REMARKS
CHICAGO-OHARE  FOG       42  42 100 NW6       29.59S VSB 1/2
6HR MIN TEMP:  40; 6HR MAX TEMP:  51;

CHICAGO-MIDWAY FOG       40  38  93 NW8       29.60R VSB 1/4
6HR MIN TEMP:  40; 6HR MAX TEMP:  53;

AURORA         FOG       41  39  93 CALM      29.60S VSB 1/4
6HR MIN TEMP:  37; 6HR MAX TEMP:  47;

LANSING*       FOG       37  37 100 CALM      29.59F VSB 1/4
JOLIET*        FOG       41  41 100 N3        29.61S VSB<1/4
WAUKEGAN       FOG       42  41  96 W6        29.58F VSB 1
6HR MIN TEMP:  39; 6HR MAX TEMP:  47;

DUPAGE AIRPORT FOG       42  41  96 CALM      29.59F VSB 1/4
6HR MIN TEMP:  39; 6HR MAX TEMP:  46;

KANKAKEE*      PTCLDY    38  37  98 CALM      29.60S
WHEELING       FOG       42  41  96 NW3       29.60F VSB 3/4
6HR MIN TEMP:  40; 6HR MAX TEMP:  51;

MORRIS*        FOG       37  36  98 CALM      29.60S VSB 1/4
ROMEOVILLE*    DRZL/FOG  40  40 100 N7        29.60S VSB 1/4
NORTHERLY ISL    N/A     39  35  86 NE3         N/A
$$

LMZ740>746-220700-
SOUTHERN LAKE MICHIGAN

STATION/POSITION SKY/WX   TEMP    WIND        PRES    VSBY  WAVE
                          AIR SEA DIR/SP/G                  HT/PER
                          (F)     (DEG/KT/KT) (MB)    (MI)  (FT/S)
HARRISON CRIB              37     350/ 14/ 14   N/A
BURNHAM HARBOR             36      60/  3/  7   N/A
CALUMET HARBOR             44     180/  2/  3 1001.5F
BURNS HARBOR               49     200/  3/  3 1002.7F
MICHIGAN CITY              49     170/  3/  3   N/A
$$

ILZ025>027-034>036-040-047-049-050-058-095>099-220700-
WEST-CENTRAL ILLINOIS

CITY           SKY/WX    TMP DP  RH WIND       PRES   REMARKS
QUINCY         CLOUDY    42  41  96 N7        29.57F FOG
GALESBURG*     FOG       33  33 100 CALM      29.58S VSB 1/4
MACOMB*        FOG       35  35 100 CALM      29.61S VSB 1/4
JACKSONVILLE*  CLOUDY    45  42  89 NE6       29.57S
PITTSFIELD*    CLOUDY    48  44  87 NE7       29.57F
$$

ILZ028>032-037-038-041>044-048-051>054-059>061-220700-
CENTRAL ILLINOIS

CITY           SKY/WX    TMP DP  RH WIND       PRES   REMARKS
PONTIAC        FOG       38  38 100 N8        29.60F VSB 1/4 WCI  32
BLOOMINGTON    CLOUDY    43  41  93 NE6       29.59F
DECATUR        CLOUDY    50  45  83 NE5       29.57F
PEORIA         PTCLDY    38  38 100 N5        29.59S FOG     WCI  34
6HR MIN TEMP:  38; 6HR MAX TEMP:  50;

LACON*         FOG       40  40 100 CALM      29.59S VSB 1/4
LINCOLN*       CLOUDY    45  43  94 N5        29.58F
SPRINGFIELD    CLOUDY    47  42  83 N5        29.57F
6HR MIN TEMP:  45; 6HR MAX TEMP:  55;

TAYLORVILLE    PTCLDY    46  44  93 NE5       29.57F
6HR MIN TEMP:  46; 6HR MAX TEMP:  56;

$$

ILZ033-039-045-046-055>057-062-063-220700-
EAST-CENTRAL ILLINOIS

CITY           SKY/WX    TMP DP  RH WIND       PRES   REMARKS
CHAMPAIGN      CLOUDY    50  44  80 NE7       29.57F
RANTOUL*       CLOUDY    50  46  87 NE3       29.58F
MATTOON        CLOUDY    50  49  96 CALM      29.57F
PARIS*         CLOUDY    49  49 100 CALM      29.59S
$$

ILZ079-100>102-220700-
SOUTHWEST ILLINOIS

CITY           SKY/WX    TMP DP  RH WIND       PRES   REMARKS
ALTON          CLOUDY    51  44  76 N5        29.53F
BELLEVILLE     CLOUDY    53  53 100 CALM      29.52F
CAHOKIA*       CLOUDY    52  48  86 NE3       29.51F
SPARTA*        CLEAR     53  51  92 CALM      29.53F
$$

ILZ064>066-069>071-074>076-080>082-084>086-088>090-092>094-220700-
SOUTH-CENTRAL ILLINOIS

CITY           SKY/WX    TMP DP  RH WIND       PRES   REMARKS
CARBONDALE     PTCLDY    48  48 100 NW3       29.51F
6HR MIN TEMP:  48; 6HR MAX TEMP:  61;

CAIRO*         PTCLDY    49  49  98 NE5       29.49F
EFFINGHAM*     PTCLDY    48  48 100 CALM      29.58F
MARION         PTCLDY    48  45  87 N3        29.53F
MT. VERNON     PTCLDY    46  45  96 CALM      29.54F
CENTRALIA*     CLOUDY    55  52  92 E3        29.53F
SALEM*         CLOUDY    55  51  86 CALM      29.55F
METROPOLIS*    CLEAR     50  48  90 CALM      29.51F
$$

ILZ067-068-072-073-078-083-087-091-220700-
SOUTHEAST ILLINOIS

CITY           SKY/WX    TMP DP  RH WIND       PRES   REMARKS
LAWRENCEVILLE  PTCLDY    49  48  97 E3        29.57F
FLORA*         MOCLDY    55  51  85 CALM      29.56F
FAIRFIELD*     PTCLDY    56  50  81 CALM      29.54F
HARRISBURG*    CLOUDY    55  50  86 E5        29.54F
ROBINSON*      CLOUDY    46  45  97 SE3       29.58F
CARMI*         CLOUDY    50  48  94 CALM      29.55F
$$

ABBREVIATIONS USED IN REMARKS
   TC - TEMPERATURE IN CELSIUS
  WCI - WIND CHILL INDEX
   HX - HEAT INDEX
  VSB - VISIBILITY
$$





USA.gov is the U.S. government's official web portal to all federal, state and local government web resources and services.